Change the Weather History Date:

Tuesday, January 29, 2013

  Actual Average Record
Temperature  
Mean Temperature 24 °F 26 °F  
Max Temperature 31 °F 40 °F 60 °F (1976)
Min Temperature 16 °F 12 °F -25 °F (1957)
Degree Days  
Heating Degree Days 41 39  
Month to date heating degree days 1405 1152  
Since 1 July heating degree days 4043 4252  
Cooling Degree Days 0 0  
Month to date cooling degree days 0 0  
Year to date cooling degree days 0 0  
Moisture  
Dew Point 20 °F    
Average Humidity 78    
Maximum Humidity 92    
Minimum Humidity 63    
Precipitation  
Precipitation 0.13 in 0.02 in 0.41 in (1981)
Month to date precipitation 0.80 0.65  
Year to date precipitation 0.80 0.65  
Snow  
Snow 1.60 in 0.30 in 4.50 in (1981)
Month to date snowfall 11.6 8.5  
Since 1 July snowfall 45.4 26.4  
Snow Depth 7.00 in    
Sea Level Pressure  
Sea Level Pressure 30.04 in    
Wind  
Wind Speed 7 mph (NNW)    
Max Wind Speed 26 mph    
Max Gust Speed 35 mph    
Visibility 4 miles    
Events Fog , Snow    
T = Trace of Precipitation, MM = Missing Value Source: NWS Daily Summary

Daily Weather History Graph

Daily Weather History Graph

Search for Another Location

Airport or City:

Trip Planner

Search our weather history database for the weather conditions in past years. The results will help you decide how hot, cold, wet, or windy it might be!

Date:

Astronomy

Jan. 29, 2013 Rise Set
Actual Time 6:48 AM PST 4:56 PM PST
Civil Twilight 6:20 AM PST 5:25 PM PST
Nautical Twilight 5:48 AM PST 5:57 PM PST
Astronomical Twilight 5:16 AM PST 6:29 PM PST
Moon 7:55 PM PST 7:49 AM PST
Length of Visible Light 11h 05m
Length of Day
10h 08m
Waning Gibbous, 93% of the Moon is Illuminated
Jan 29
Waning Gibbous
Feb 3
Last Quarter
Feb 9
New
Feb 17
First Quarter
Feb 25
Full

Hourly Weather History & Observations

Time (PST) Temp. Windchill Dew Point Humidity Pressure Visibility Wind Dir Wind Speed Gust Speed Precip Events Conditions
12:12 AM 17.6 °F - 15.8 °F 93% 29.95 in 4.0 mi Calm Calm - 0.00 in Snow Light Snow
12:53 AM 19.0 °F - 16.0 °F 88% 30.04 in 3.0 mi Calm Calm - 0.01 in Snow Light Snow
1:53 AM 19.0 °F - 16.0 °F 88% 30.03 in 6.0 mi Calm Calm - 0.00 in Snow Light Snow
2:09 AM 19.4 °F 14.3 °F 15.8 °F 86% 29.93 in 7.0 mi ENE 3.5 mph - 0.00 in Snow Light Snow
2:49 AM 19.4 °F - 15.8 °F 86% 29.92 in 3.0 mi Calm Calm - 0.00 in Snow Light Snow
2:53 AM 19.0 °F - 16.0 °F 88% 30.01 in 3.0 mi Calm Calm - 0.00 in Snow Light Snow
3:13 AM 19.4 °F - 15.8 °F 86% 29.91 in 4.0 mi North - - 0.00 in Snow Light Snow
3:53 AM 19.0 °F - 17.1 °F 92% 30.01 in 7.0 mi Calm Calm - 0.00 in Snow Light Snow
4:09 AM 19.4 °F - 17.6 °F 93% 29.90 in 3.0 mi Calm Calm - 0.00 in Snow Light Snow
4:26 AM 19.4 °F - 17.6 °F 93% 29.91 in 2.5 mi Calm Calm - 0.00 in Snow Light Snow
4:53 AM 19.9 °F 14.9 °F 17.1 °F 89% 30.01 in 2.0 mi East 3.5 mph - 0.00 in Snow Light Snow
5:22 AM 19.4 °F 12.8 °F 17.6 °F 93% 29.90 in 3.0 mi ENE 4.6 mph - 0.01 in Snow Light Snow
5:53 AM 21.0 °F - 17.1 °F 85% 30.00 in 4.0 mi Calm Calm - 0.01 in Snow Light Snow
6:07 AM 21.2 °F 16.4 °F 17.6 °F 86% 29.90 in 2.5 mi East 3.5 mph - 0.00 in Snow Light Snow
6:26 AM 21.2 °F 13.6 °F 17.6 °F 86% 29.91 in 1.8 mi ENE 5.8 mph - 0.01 in Snow Light Snow
6:53 AM 21.9 °F - 18.0 °F 85% 30.02 in 1.0 mi Calm Calm - 0.02 in Snow Light Snow
7:28 AM 21.2 °F - 17.6 °F 86% 29.92 in 0.8 mi Calm Calm - 0.01 in Snow Light Snow
7:38 AM 21.2 °F 14.9 °F 19.4 °F 93% 29.92 in 0.8 mi ENE 4.6 mph - 0.01 in Snow Light Snow
7:53 AM 23.0 °F 18.4 °F 19.0 °F 85% 30.02 in 0.5 mi Variable 3.5 mph - 0.02 in Fog , Snow Snow
8:19 AM 23.0 °F - 19.4 °F 86% 29.93 in 1.0 mi Calm Calm - 0.01 in Snow Light Snow
8:43 AM 24.8 °F - 19.4 °F 80% 29.93 in 1.0 mi Calm Calm - 0.02 in Snow Light Snow
8:53 AM 24.1 °F - 21.0 °F 88% 30.03 in 1.0 mi Calm Calm - 0.02 in Snow Light Snow
9:42 AM 26.6 °F 19.1 °F 23.0 °F 86% 29.95 in 2.0 mi NNW 6.9 mph - 0.01 in Snow Light Snow
9:51 AM 26.6 °F 19.1 °F 23.0 °F 86% 29.95 in 2.5 mi North 6.9 mph - 0.01 in Snow Light Snow
9:53 AM 27.0 °F 20.5 °F 23.0 °F 85% 30.04 in 2.5 mi Variable 5.8 mph - 0.01 in Snow Light Snow
10:04 AM 26.6 °F 19.1 °F 24.8 °F 93% 29.96 in 1.8 mi North 6.9 mph - 0.00 in Snow Light Snow
10:15 AM 26.6 °F 20.0 °F 24.8 °F 93% 29.96 in 1.0 mi North 5.8 mph - 0.00 in Snow Light Snow
10:35 AM 26.6 °F 19.1 °F 24.8 °F 93% 29.97 in 1.5 mi North 6.9 mph - 0.01 in Snow Light Snow
10:49 AM 28.4 °F 23.3 °F 24.8 °F 86% 29.96 in 2.5 mi NNE 4.6 mph - 0.01 in Snow Light Snow
10:53 AM 28.0 °F 22.8 °F 24.1 °F 85% 30.04 in 2.0 mi NNE 4.6 mph - 0.01 in Snow Light Snow
10:59 AM 28.4 °F 22.2 °F 24.8 °F 86% 29.96 in 1.2 mi North 5.8 mph - 0.00 in Snow Light Snow
11:08 AM 28.4 °F 19.7 °F 24.8 °F 86% 29.97 in 2.0 mi North 9.2 mph - 0.00 in Snow Light Snow
11:17 AM 28.4 °F 19.1 °F 24.8 °F 86% 29.97 in 6.0 mi North 10.4 mph - 0.00 in Snow Light Snow
11:25 AM 28.4 °F 16.2 °F 21.2 °F 74% 29.98 in 2.5 mi NNW 17.3 mph 24.2 mph 0.00 in Snow Light Snow
11:31 AM 28.4 °F 19.1 °F 23.0 °F 80% 29.98 in 1.8 mi North 10.4 mph 24.2 mph 0.00 in Snow Light Snow
11:45 AM 28.4 °F 18.0 °F 23.0 °F 80% 29.98 in 1.5 mi NNW 12.7 mph - 0.01 in Snow Light Snow
11:53 AM 28.0 °F 17.5 °F 24.1 °F 85% 30.06 in 1.5 mi NW 12.7 mph - 0.01 in Snow Light Snow
12:00 PM 28.4 °F 18.0 °F 24.8 °F 86% 29.98 in 1.0 mi NW 12.7 mph - 0.00 in Snow Light Snow
12:08 PM 28.4 °F 17.5 °F 24.8 °F 86% 29.98 in 2.0 mi NW 13.8 mph - 0.00 in Snow Light Snow
12:21 PM 28.4 °F 17.0 °F 23.0 °F 80% 29.98 in 4.0 mi NW 15.0 mph - 0.00 in Snow Light Snow
12:53 PM 28.9 °F 16.5 °F 23.0 °F 78% 30.07 in 6.0 mi NNW 18.4 mph 25.3 mph 0.00 in Snow Light Snow
1:53 PM 30.9 °F 17.8 °F 21.9 °F 69% 30.08 in 4.0 mi NNW 23.0 mph 32.2 mph 0.01 in Snow Light Snow
2:19 PM 30.2 °F 18.1 °F 21.2 °F 69% 30.04 in 2.5 mi NW 18.4 mph 26.5 mph 0.00 in Snow Light Snow
2:30 PM 30.2 °F 17.8 °F 21.2 °F 69% 30.04 in 4.0 mi NW 19.6 mph 28.8 mph 0.00 in Snow Light Snow
2:53 PM 28.9 °F 15.8 °F 21.0 °F 72% 30.13 in 3.0 mi NW 20.7 mph 32.2 mph 0.00 in Snow Light Snow
3:19 PM 28.4 °F 16.2 °F 21.2 °F 74% 30.07 in 2.0 mi NW 17.3 mph - 0.00 in Snow Light Snow
3:32 PM 28.4 °F 16.2 °F 23.0 °F 80% 30.07 in 1.8 mi NW 17.3 mph - 0.00 in Snow Light Snow
3:39 PM 28.4 °F 17.5 °F 23.0 °F 80% 30.08 in 2.0 mi NW 13.8 mph - 0.00 in Snow Light Snow
3:44 PM 28.4 °F 18.5 °F 24.8 °F 86% 30.09 in 1.8 mi NW 11.5 mph - 0.00 in Snow Light Snow
3:53 PM 28.0 °F 17.0 °F 23.0 °F 81% 30.18 in 2.0 mi NW 13.8 mph - 0.00 in Snow Light Snow
4:03 PM 28.4 °F 18.0 °F 23.0 °F 80% 30.10 in 1.5 mi NNW 12.7 mph - 0.00 in Snow Light Snow
4:08 PM 28.4 °F 19.7 °F 23.0 °F 80% 30.10 in 3.0 mi NNW 9.2 mph - 0.00 in Snow Light Snow
4:48 PM 28.4 °F 19.1 °F 21.2 °F 74% 30.11 in 7.0 mi NNW 10.4 mph - 0.01 in Snow Light Snow
4:53 PM 28.0 °F 18.6 °F 19.9 °F 72% 30.19 in 8.0 mi NNW 10.4 mph - 0.01 in Snow Light Snow
5:53 PM 26.1 °F 17.6 °F 16.0 °F 66% 30.23 in 10.0 mi NW 8.1 mph 18.4 mph 0.00 in   Scattered Clouds
6:53 PM 25.0 °F 16.3 °F 16.0 °F 69% 30.27 in 10.0 mi WNW 8.1 mph - N/A   Mostly Cloudy
7:53 PM 24.1 °F 14.4 °F 17.1 °F 75% 30.28 in 10.0 mi NW 9.2 mph - N/A   Overcast
8:53 PM 24.1 °F 13.7 °F 16.0 °F 71% 30.31 in 10.0 mi NW 10.4 mph - N/A   Overcast
9:53 PM 25.0 °F 16.3 °F 18.0 °F 75% 30.30 in 10.0 mi NW 8.1 mph - N/A   Overcast
10:53 PM 21.0 °F 14.6 °F 15.1 °F 78% 30.31 in 10.0 mi NW 4.6 mph - N/A   Mostly Cloudy
11:53 PM 16.0 °F 5.3 °F 12.0 °F 84% 30.35 in 10.0 mi North 8.1 mph - N/A   Clear